Wind_Speed
35 34 34 35 35 37 38 38 38 38 37 36 35 35 35 35 35 34 33 32 32 32 31 32 32 32 33 33 34 34 34 34 33 31 29 28 28 29 30 30 29 28 27 26 25 24 24 24 23 23 23 23 23 23 23 23 22 22 21 21 21 21 20 20 20 19 19 18 18 17 17 17 17 16 16 16 16 16 16 16 16 16 16 16 16 16
33 32 31 32 33 34 35 35 35 35 35 34 34 33 33 33 33 33 32 32 31 31 31 31 31 32 32 33 33 34 34 34 33 31 29 29 29 30 31 31 30 29 27 27 26 25 25 24 24 24 24 24 23 23 23 23 23 22 22 21 21 21 21 20 20 20 19 19 18 18 18 17 17 17 16 16 16 16 17 17 16 16 16 16 16 16
29 29 29 30 31 32 32 33 33 33 33 33 32 32 32 32 32 32 32 31 31 31 30 31 31 32 32 33 33 33 33 33 32 31 30 30 31 32 32 31 30 29 28 28 27 26 25 25 25 24 24 24 24 24 24 23 23 23 22 22 21 21 21 21 21 20 20 19 19 18 18 18 17 17 17 17 17 17 17 17 17 16 16 16 16 17
26 26 27 28 29 30 31 31 31 32 32 31 31 31 31 31 30 30 30 30 29 29 29 30 31 32 33 33 33 33 32 32 32 32 32 32 33 33 33 32 31 30 29 29 28 27 27 26 25 25 24 24 24 24 24 24 23 23 22 22 22 21 21 21 21 21 21 20 20 19 18 18 18 18 18 18 18 18 18 17 17 17 17 17 17 17
23 24 25 26 28 29 30 30 30 30 31 30 29 29 29 29 28 27 27 26 26 26 27 28 29 30 31 32 32 32 32 32 33 33 34 34 34 34 34 33 32 31 31 30 29 29 28 27 26 26 25 25 24 24 24 24 24 23 23 22 22 22 22 22 22 22 21 21 20 19 19 18 18 18 18 18 18 18 18 18 18 17 17 17 17 18
22 23 24 25 26 27 28 28 29 29 29 28 27 27 26 26 25 24 23 23 23 23 23 24 25 27 28 30 31 32 32 34 34 35 36 36 36 35 35 34 34 33 32 32 31 30 29 28 27 26 26 25 25 24 24 24 24 24 23 23 22 22 22 22 22 22 22 21 20 20 19 19 19 19 19 19 19 19 19 19 18 18 18 18 18 18
21 22 22 23 24 25 26 26 27 27 27 26 25 24 24 23 22 21 21 20 20 20 20 21 22 24 26 28 30 32 34 35 36 36 36 37 36 36 36 35 35 34 34 33 33 32 31 30 29 28 27 26 25 25 25 25 24 24 24 23 23 23 23 23 23 23 22 22 21 20 20 20 20 20 20 20 20 20 19 19 19 19 19 19 19 19
22 22 22 22 22 23 24 25 25 25 24 24 23 22 22 21 20 19 18 18 18 18 19 20 22 23 25 28 30 32 34 35 36 36 36 36 37 37 36 36 36 35 35 35 34 33 32 31 30 29 27 26 26 25 25 25 25 25 24 24 23 23 24 24 24 23 23 22 21 21 20 20 20 20 21 21 21 20 20 20 20 20 20 20 20 20
23 23 22 22 22 22 23 24 24 24 23 23 22 21 20 20 19 18 18 17 17 18 19 21 22 24 25 27 28 30 32 33 33 34 34 35 35 36 36 37 36 36 36 36 35 35 34 32 31 30 28 27 26 26 26 26 26 25 25 24 24 24 24 24 24 24 23 22 22 21 21 21 21 21 21 21 21 21 21 21 20 20 20 21 21 21
23 23 23 23 23 23 23 23 24 24 23 22 22 21 21 20 20 19 19 19 19 19 20 21 22 23 24 24 25 26 28 28 29 30 31 33 34 35 36 36 37 37 37 36 36 35 34 33 32 31 29 28 27 27 26 26 26 26 25 25 25 25 25 25 25 24 24 23 22 22 22 21 22 22 22 22 22 22 22 21 21 21 21 21 22 22
23 24 24 24 25 25 25 25 24 24 24 23 23 23 22 22 22 21 22 22 21 21 21 21 21 21 21 22 23 24 25 26 27 28 29 31 32 34 35 36 36 37 37 36 36 35 35 34 33 31 30 29 28 27 27 27 26 26 26 25 25 25 26 25 25 25 24 23 23 22 22 22 22 23 23 23 23 23 23 22 22 22 22 22 22 22
23 23 24 24 25 26 26 26 26 25 25 25 26 26 26 25 24 24 24 23 23 23 22 22 21 21 21 21 22 23 24 25 26 27 28 29 31 32 34 35 35 36 36 36 36 36 35 34 33 32 31 30 29 28 27 27 27 26 26 26 26 26 26 26 26 25 24 24 23 23 23 23 23 23 24 24 24 24 23 23 23 23 23 23 23 23
25 24 24 24 25 25 26 27 27 27 28 28 29 29 29 27 26 26 26 25 24 23 22 22 22 22 22 22 22 22 23 24 25 26 27 28 29 30 31 32 34 34 35 35 35 35 35 34 33 32 31 30 29 28 28 27 27 27 27 26 27 27 27 26 26 25 25 24 23 23 23 24 24 24 25 25 25 25 24 24 24 24 24 24 24 24
27 26 25 24 25 25 26 26 27 28 29 30 30 29 29 28 27 27 26 26 25 24 23 22 22 22 22 23 23 23 23 24 25 26 27 28 28 28 29 30 32 33 34 35 35 35 34 34 33 33 31 30 29 28 28 27 27 27 27 27 27 27 27 27 26 25 25 24 24 24 24 24 25 25 25 25 25 25 25 25 25 25 25 25 25 25
29 28 27 26 26 26 27 27 27 28 29 29 28 28 27 27 27 26 26 26 25 24 23 23 23 23 24 24 24 25 25 24 25 26 27 27 27 28 29 30 32 33 33 34 34 34 33 33 33 32 31 30 29 28 28 27 27 27 27 27 27 27 27 27 26 26 25 25 24 24 25 25 25 26 26 26 26 26 26 26 26 26 26 26 26 25
30 30 29 29 28 28 28 28 28 28 28 27 26 26 26 26 26 25 25 25 25 24 24 24 24 25 26 26 26 26 25 25 26 27 28 28 29 29 30 32 32 33 33 34 34 33 33 33 32 32 31 30 29 28 27 27 27 27 27 27 27 28 27 27 27 26 25 25 25 25 25 26 26 26 27 27 27 27 27 26 26 26 26 26 26 26
29 30 30 30 30 29 29 29 28 28 27 26 26 25 25 25 25 24 24 25 25 24 24 24 25 25 27 27 27 26 25 25 26 28 29 30 31 31 32 33 33 33 33 33 33 32 32 32 32 31 30 29 28 28 28 27 27 27 27 27 27 27 27 27 27 26 26 25 25 26 26 26 27 27 27 27 27 27 27 27 27 27 27 27 27 27
27 29 30 30 30 29 29 28 28 28 27 26 26 25 25 24 24 24 25 25 26 26 26 25 26 27 28 27 27 26 25 25 27 28 30 32 32 33 33 33 33 33 32 32 32 31 31 31 31 30 30 29 28 28 28 28 27 27 27 27 28 28 27 27 27 26 26 26 26 26 26 27 27 27 28 28 28 28 27 27 27 27 27 27 27 27
26 27 28 29 29 29 29 29 28 28 27 26 25 25 24 24 24 25 25 26 26 27 26 26 26 27 27 27 26 24 24 24 26 27 29 31 32 33 33 33 33 32 32 31 31 31 30 30 30 29 29 28 28 28 28 28 28 28 28 28 28 28 27 27 27 27 26 26 26 27 27 27 28 28 28 28 28 28 28 27 27 27 27 27 27 27
26 27 28 28 28 29 29 29 29 28 27 26 26 25 25 25 25 25 26 26 26 26 26 26 26 25 24 23 22 22 22 22 23 24 26 28 29 31 31 32 32 32 32 31 30 30 30 30 29 29 29 29 29 28 28 28 28 28 28 28 28 28 28 27 27 27 27 27 27 27 27 28 28 28 28 28 28 28 28 28 27 28 28 28 28 27
28 28 27 27 28 29 30 30 29 28 28 27 27 27 27 26 26 26 26 25 25 25 25 25 24 22 20 19 19 20 21 21 21 22 23 24 26 27 29 30 31 32 32 30 29 29 29 29 29 29 29 29 29 29 29 29 29 29 29 28 28 28 28 27 27 27 27 27 27 27 28 28 28 28 28 28 28 28 28 28 28 28 28 28 28 28
30 29 28 27 28 29 30 30 29 29 29 29 30 30 29 27 26 26 25 25 25 25 24 22 20 19 17 17 18 19 20 21 22 22 22 23 24 25 26 28 30 31 31 30 28 28 29 29 29 29 29 29 29 29 29 29 29 29 29 29 28 28 28 27 27 27 27 27 27 27 28 28 28 28 28 28 28 28 28 28 28 28 28 28 28 28
32 31 29 29 29 29 29 29 29 29 30 30 30 30 29 27 27 26 25 24 24 23 21 20 18 18 18 18 19 20 20 21 22 22 22 23 23 23 24 27 30 31 30 28 27 28 28 29 29 29 29 29 30 30 30 30 30 30 29 29 28 28 28 27 27 27 27 27 27 27 27 28 27 27 27 27 27 27 28 28 28 28 28 28 28 28
33 32 31 30 30 29 28 28 28 28 29 29 29 28 27 26 25 25 25 24 23 22 21 20 20 20 21 21 21 21 22 22 22 22 22 23 24 24 25 28 30 31 29 27 26 27 28 28 28 28 29 29 30 30 30 30 30 30 29 29 28 28 27 27 27 27 27 27 27 27 27 27 27 27 27 27 28 28 28 28 28 28 28 28 27 27
34 33 32 31 30 29 28 28 27 27 28 28 27 26 25 24 24 24 25 25 24 24 24 24 25 25 24 23 23 23 24 24 24 24 24 24 25 26 27 29 31 31 28 26 25 26 27 27 27 28 28 29 30 30 30 30 30 30 29 29 28 28 27 27 27 27 27 27 27 27 27 27 27 27 27 27 28 28 28 28 28 28 27 27 27 26
34 34 33 32 31 30 29 28 28 27 27 27 26 25 24 24 24 25 26 27 27 27 27 28 29 28 27 26 25 25 25 25 25 25 25 26 27 28 29 30 30 30 28 26 25 25 26 26 26 27 28 29 30 30 30 30 30 29 29 28 28 27 27 27 27 27 27 27 27 27 27 27 27 27 27 28 28 28 27 27 27 27 27 26 26 25
34 34 33 33 32 31 30 29 28 28 27 27 27 26 25 25 25 27 28 29 29 29 30 31 31 30 29 28 28 27 27 27 27 27 27 28 29 30 31 30 30 29 28 26 25 25 25 25 26 26 28 29 29 30 29 29 29 29 28 28 27 27 27 27 26 27 27 27 27 27 27 27 27 27 27 27 27 27 27 27 27 26 26 26 25 25
33 34 34 34 33 32 32 31 30 29 29 28 28 27 27 27 28 30 31 30 30 31 32 33 33 32 31 31 30 30 29 29 29 29 28 29 31 32 31 30 30 29 29 27 26 25 26 26 26 26 28 29 29 29 29 29 28 28 28 27 27 27 27 26 26 27 27 26 26 26 26 27 27 27 27 27 27 27 26 26 26 25 25 24 24 24
32 33 34 34 34 34 34 33 32 31 30 29 29 29 29 30 31 32 32 31 30 31 33 33 33 33 33 32 32 31 31 31 31 30 30 31 33 33 31 30 30 30 30 28 27 26 27 27 26 27 28 29 29 29 29 28 28 28 28 27 27 27 27 26 26 26 26 26 26 26 26 26 27 27 27 26 26 26 25 25 24 24 24 23 23 23
31 32 34 35 35 35 35 35 34 33 32 31 30 30 31 32 32 32 31 30 31 32 33 33 33 32 32 32 31 32 33 33 32 31 31 32 34 33 31 30 30 31 30 29 28 27 28 28 28 27 28 29 29 29 29 28 28 28 28 27 27 27 27 26 26 26 26 26 26 26 26 26 26 26 26 25 25 25 24 24 23 23 23 23 23 23
29 31 33 34 35 35 36 36 36 35 34 33 32 32 32 33 32 31 30 30 31 32 33 33 32 32 32 32 31 32 33 33 32 31 31 33 34 33 31 31 31 31 30 29 28 28 28 28 28 29 29 29 29 29 29 29 28 28 27 27 27 26 26 26 26 26 26 26 26 26 26 26 25 25 25 24 24 23 23 22 22 22 22 22 22 22
27 29 31 33 34 35 36 37 37 36 36 35 34 33 33 33 33 32 31 31 32 32 32 32 32 32 32 32 33 33 33 32 31 30 30 31 32 31 30 30 30 30 30 29 28 27 26 25 26 28 28 29 29 29 29 28 28 28 27 27 26 26 26 26 26 26 26 25 25 25 25 25 25 24 24 23 23 22 22 22 21 21 22 22 22 22
24 26 28 30 32 33 35 36 37 37 37 36 35 35 35 34 34 33 33 32 32 32 32 32 32 32 32 32 33 33 31 30 29 28 28 28 28 28 28 28 29 30 29 29 29 28 27 25 25 27 28 29 29 29 29 28 28 27 27 26 26 26 26 26 26 26 25 25 25 25 25 24 24 24 23 22 22 22 22 21 21 21 21 22 22 22
24 25 26 27 29 31 33 35 36 37 37 37 36 36 35 35 35 34 34 33 33 32 32 32 32 31 31 32 32 32 30 29 28 28 27 26 25 25 25 25 27 28 29 29 29 29 29 28 27 26 27 28 28 28 28 28 28 27 27 26 26 25 25 25 25 25 25 24 24 24 24 24 23 23 22 22 22 21 21 21 21 21 21 22 22 22
24 24 25 26 27 28 30 32 34 35 36 36 36 36 35 35 35 35 35 34 33 33 32 32 31 31 31 31 31 31 30 29 28 27 26 25 24 23 22 23 24 25 27 28 29 29 29 29 28 28 27 27 27 27 27 27 27 27 26 26 25 25 25 25 25 25 24 24 24 24 24 23 23 22 22 21 21 21 21 21 21 21 21 21 22 22
24 25 25 26 26 27 28 30 31 33 34 35 35 35 35 35 35 35 35 34 33 33 32 31 30 29 29 29 30 30 29 28 27 26 26 25 24 23 22 22 23 23 25 26 28 28 29 29 29 29 29 28 27 27 27 26 26 26 25 25 25 25 25 25 24 24 24 24 24 24 23 23 22 22 21 21 21 21 21 21 21 21 21 21 22 22
25 25 26 26 26 27 28 29 30 31 32 33 34 34 34 35 35 35 35 34 33 32 31 30 29 29 28 28 28 28 27 26 26 26 26 25 23 23 23 23 22 22 23 24 25 26 27 29 29 29 30 30 29 28 27 26 25 25 25 25 25 24 25 24 24 24 24 24 24 23 23 23 22 22 21 21 21 21 21 21 21 21 22 22 22 22
26 26 27 27 27 27 27 28 29 29 30 31 32 32 33 33 34 34 34 34 33 32 31 30 29 29 28 28 28 28 27 27 27 27 26 25 24 23 23 23 22 22 22 22 23 23 25 28 29 30 30 30 30 29 28 26 25 25 25 24 24 24 24 24 24 24 24 24 24 23 23 23 22 22 21 21 21 22 22 22 22 22 22 22 23 23
27 27 27 27 27 27 27 27 27 27 27 28 28 29 30 31 32 33 34 34 33 32 32 31 30 29 29 29 28 28 28 28 28 27 27 26 25 24 23 23 23 22 22 22 22 22 24 26 28 29 30 30 29 29 27 26 25 24 24 24 24 24 24 23 23 23 24 24 23 23 23 23 22 22 22 22 22 22 22 22 22 22 22 23 23 23
29 29 28 27 27 26 26 26 25 25 24 24 24 25 26 28 30 31 32 33 33 32 32 31 30 30 30 29 29 29 29 29 28 28 28 27 26 25 24 24 23 23 22 22 22 23 24 25 27 27 28 28 28 28 26 25 24 24 23 23 24 24 24 23 23 23 24 24 24 24 23 23 23 22 22 22 22 22 22 22 22 23 23 23 24 24
31 30 29 28 27 26 25 24 23 22 21 21 21 22 24 26 28 29 31 32 32 32 32 31 31 31 30 30 30 30 30 30 30 29 29 29 28 27 26 25 24 24 23 23 23 24 24 25 26 27 27 27 27 26 26 25 23 23 22 23 24 23 23 23 23 24 24 24 24 24 23 23 23 22 22 22 22 22 22 22 23 23 24 24 25 25
33 32 30 28 26 25 23 22 21 21 21 21 21 22 23 24 25 27 29 30 31 32 32 32 32 32 31 31 31 30 30 30 30 30 30 30 29 28 27 27 26 25 24 24 25 25 25 25 26 26 26 26 26 26 26 24 23 22 22 22 22 22 22 23 24 24 24 25 25 24 24 23 23 23 22 22 22 22 23 23 24 24 25 25 26 26
35 33 31 28 26 24 22 21 21 21 21 21 22 22 22 23 23 24 26 28 29 30 31 31 31 31 32 32 31 31 31 31 31 31 31 31 30 30 29 28 27 27 26 26 26 26 26 26 26 26 26 25 25 26 26 25 23 23 23 23 22 22 23 25 25 25 25 25 25 24 24 23 23 23 22 22 23 23 24 24 25 26 26 26 26 27
35 34 31 29 26 24 22 22 22 22 22 22 22 22 22 22 22 23 24 25 27 28 29 29 30 31 32 32 32 32 31 31 31 31 32 32 31 31 30 30 29 29 28 27 27 27 27 26 26 27 26 25 25 25 26 25 24 24 24 23 23 23 24 24 24 24 25 25 25 24 23 23 23 23 23 23 24 24 25 25 26 26 27 27 27 27
35 33 31 29 27 25 23 23 22 22 22 23 23 23 22 21 21 22 23 24 25 26 27 28 29 31 32 33 33 32 32 32 32 32 32 32 32 32 31 31 30 30 29 29 28 27 27 27 27 27 26 26 25 26 26 26 25 25 24 24 24 24 24 23 23 23 24 24 24 23 23 23 23 23 23 24 24 25 25 26 26 26 26 27 27 27
35 33 32 30 28 26 25 24 23 22 23 23 23 23 22 22 22 22 23 23 24 25 26 27 28 31 33 32 32 32 32 33 33 33 33 33 32 32 32 32 31 31 29 28 27 26 26 26 27 26 26 26 26 27 27 27 26 26 25 24 24 23 23 23 23 23 23 23 23 23 22 23 23 24 24 25 25 26 26 26 26 26 26 26 26 26
35 33 32 30 29 27 26 25 24 24 24 24 24 23 23 22 22 22 22 23 23 24 25 26 28 30 31 31 31 31 31 32 33 33 33 33 33 32 32 32 31 30 29 27 26 25 25 25 26 25 25 26 27 27 28 28 27 27 26 25 24 23 23 23 23 22 22 22 22 22 22 23 23 24 25 26 26 26 26 26 25 25 25 25 25 26
34 33 32 31 29 28 27 26 26 25 25 25 25 24 24 23 23 23 23 23 23 24 25 26 28 29 30 30 30 30 30 30 31 32 32 32 32 32 31 31 30 29 28 26 25 25 25 25 25 25 25 25 26 27 28 28 28 27 26 25 24 23 23 22 22 21 21 21 21 22 22 23 24 25 25 26 27 27 26 25 25 24 24 24 25 25
33 32 32 31 29 29 28 28 27 27 26 26 26 26 25 24 24 24 23 23 23 24 25 27 28 29 29 29 29 29 29 29 29 30 31 30 30 30 30 29 29 28 27 26 26 26 26 26 26 26 25 25 25 26 26 27 27 26 25 24 24 23 22 22 21 20 20 21 21 22 22 23 24 25 25 26 27 27 26 25 24 24 23 24 24 24
33 32 31 30 30 29 28 28 28 27 27 27 27 27 26 26 25 25 24 24 24 24 25 26 27 28 28 28 28 28 28 28 28 28 29 28 28 28 28 28 28 28 27 27 27 27 27 26 26 27 27 26 26 25 25 25 25 25 24 24 23 22 22 21 20 20 20 21 21 22 23 23 24 25 25 26 26 26 25 24 23 22 22 22 23 23
34 32 31 31 30 29 29 28 28 28 28 28 27 27 27 27 27 27 26 25 25 25 26 26 26 27 27 27 27 26 27 27 27 27 28 27 27 27 27 28 28 29 29 29 29 28 28 27 27 27 27 27 27 26 26 25 24 23 23 23 23 22 21 21 20 20 20 21 21 22 22 23 24 24 25 24 24 24 23 23 22 21 20 20 20 21
Wind_Direction
239 241 243 244 244 244 243 241 239 236 234 232 229 226 223 220 217 215 213 212 212 212 213 213 214 215 217 219 222 225 228 230 232 232 231 230 230 232 234 236 238 240 243 245 248 250 252 254 255 255 255 255 254 253 251 250 248 247 246 244 243 241 240 239 240 241 244 246 250 253 257 260 263 267 269 271 272 273 273 275 276 278 279 279 279 280
237 237 238 240 241 241 241 239 236 233 230 226 222 219 216 214 212 211 211 212 213 214 215 216 217 218 219 221 224 226 229 231 233 234 233 233 233 234 235 237 239 241 243 245 248 250 252 254 254 255 255 254 254 253 251 250 248 247 245 244 242 240 239 239 239 241 243 246 249 253 256 260 263 266 268 270 270 271 272 274 275 276 277 277 278 278
234 233 233 234 235 235 234 233 230 226 223 219 215 213 211 210 209 210 210 211 213 214 216 218 220 222 223 225 227 228 230 232 234 235 235 235 236 236 237 239 240 242 243 245 247 250 252 253 254 255 255 254 253 252 251 249 248 247 245 243 241 239 238 238 239 241 244 246 249 252 256 259 262 265 267 268 269 270 272 273 274 275 275 276 276 276
231 228 227 227 227 226 225 223 221 218 215 212 209 208 207 207 208 209 209 210 212 214 216 219 221 223 225 226 228 229 231 232 234 235 236 236 237 238 239 241 242 243 244 246 248 249 251 253 254 254 254 254 253 252 251 249 248 246 245 242 240 238 237 238 239 241 244 246 249 252 255 258 261 263 265 267 268 270 271 272 273 274 274 274 274 275
226 222 220 219 217 216 216 214 212 210 208 205 204 203 204 205 206 206 207 208 210 212 215 218 221 224 226 227 228 229 230 231 233 235 236 238 239 240 241 242 243 244 245 247 248 250 251 252 253 254 254 253 252 251 250 249 248 246 244 242 240 238 237 238 239 241 244 246 249 252 255 258 260 262 264 266 267 269 270 271 272 273 273 273 274 274
223 218 216 213 211 210 209 206 204 203 202 201 201 201 202 203 204 205 206 207 208 210 214 218 221 224 226 227 228 228 229 231 233 235 237 239 240 242 243 244 244 245 246 248 249 250 251 252 253 253 253 252 251 250 249 248 247 246 244 241 239 237 237 237 239 241 243 246 249 252 255 257 260 261 263 265 267 268 270 271 271 272 272 272 272 273
224 219 214 211 210 208 206 203 201 200 201 202 203 204 204 205 206 208 209 208 209 212 215 218 221 223 225 226 227 228 229 231 233 236 238 240 242 243 244 245 246 246 247 248 249 250 251 252 253 253 252 251 250 249 248 247 246 245 243 241 239 237 236 237 238 241 243 246 249 252 254 257 259 261 263 265 266 268 269 270 271 271 271 272 272 272
228 223 218 214 212 210 208 206 204 205 206 209 210 210 210 210 212 215 217 216 217 218 221 222 223 224 224 225 225 227 228 231 233 235 238 240 242 243 244 245 246 247 248 249 249 250 251 252 252 252 251 249 248 247 246 245 245 243 242 240 238 236 236 237 238 240 243 246 249 251 254 256 259 261 263 265 266 267 268 269 270 270 271 271 271 271
232 228 224 220 218 216 214 212 211 212 214 217 218 218 216 216 219 222 225 226 226 225 227 228 227 227 226 226 226 227 228 230 233 235 237 240 241 243 244 245 246 247 247 248 249 250 251 251 251 250 249 247 246 244 244 243 243 242 241 239 237 236 235 236 238 240 243 246 248 251 254 256 258 261 263 264 266 267 268 269 269 270 270 270 271 271
234 232 230 227 225 224 223 223 220 219 220 222 224 224 222 222 223 225 227 228 228 228 230 233 233 232 231 231 231 232 233 234 236 238 239 241 242 243 244 245 246 246 247 247 248 249 249 250 249 249 247 245 244 242 241 241 241 241 239 238 237 235 235 236 238 240 243 245 248 251 253 256 258 260 262 264 266 267 267 268 268 269 269 270 270 270
237 235 234 232 231 231 231 231 229 227 225 227 228 228 227 226 226 227 228 228 227 227 230 233 236 238 238 238 238 239 240 240 241 242 243 243 244 244 244 244 245 245 245 246 247 247 247 247 247 247 245 243 241 240 239 239 239 239 238 237 236 235 235 236 237 240 242 245 247 250 253 255 258 260 262 264 265 266 267 267 268 268 268 269 269 269
238 237 237 236 235 235 235 236 235 233 232 231 230 229 229 227 227 227 228 228 227 227 229 232 235 238 241 243 243 243 244 245 245 245 246 246 246 245 245 244 244 244 244 244 244 244 245 245 245 244 243 241 240 238 238 237 238 237 237 236 235 235 235 236 237 239 242 244 247 250 252 255 257 259 261 263 265 266 267 267 267 267 267 267 267 267
236 237 238 238 238 238 238 238 237 236 235 233 232 231 230 228 228 228 229 229 229 229 230 232 233 235 237 239 241 243 246 248 250 250 250 250 249 248 246 245 244 243 243 242 242 242 242 242 242 242 241 240 238 237 237 236 236 237 236 236 235 235 235 236 237 239 242 244 247 249 252 254 256 259 260 262 264 265 266 266 267 266 266 266 266 266
235 236 237 238 238 238 238 239 239 239 237 236 235 234 233 232 232 232 232 232 232 231 231 232 232 232 231 232 233 237 242 248 253 255 255 254 253 252 250 248 245 243 242 241 241 240 240 240 240 240 239 238 237 236 236 236 236 236 235 235 235 235 235 236 238 240 242 244 246 249 251 254 256 258 260 262 263 265 265 266 266 266 266 266 265 265
233 234 235 236 236 237 237 238 240 241 241 240 240 239 239 238 237 237 237 237 236 234 233 232 230 228 226 226 226 229 234 243 251 256 257 256 256 254 251 248 245 242 241 240 239 239 238 239 239 239 238 237 237 236 236 236 235 235 235 234 234 235 235 236 238 240 242 244 246 249 251 253 256 258 260 261 263 264 265 265 265 265 265 265 265 265
232 233 233 234 234 235 236 237 239 241 242 243 243 243 243 242 242 241 242 241 241 239 236 233 230 227 225 222 221 223 229 238 247 252 255 254 252 250 248 245 242 240 238 238 237 237 237 237 238 238 237 237 236 236 236 236 236 235 235 234 234 234 235 237 238 240 242 244 246 249 251 253 256 258 260 261 262 263 264 264 265 265 265 265 265 265
235 234 234 234 234 235 236 237 238 239 241 243 243 243 244 244 245 245 245 245 245 242 239 235 231 228 226 223 221 221 226 236 243 248 250 250 248 245 243 241 240 238 236 236 236 236 236 236 237 237 237 236 236 235 235 235 235 235 234 234 234 234 235 237 238 240 242 244 247 249 251 254 256 258 260 261 262 263 264 264 264 264 264 264 264 265
239 237 237 236 236 237 238 239 239 240 241 242 243 243 243 244 245 245 246 247 246 244 241 236 232 228 225 226 224 223 227 236 243 246 246 246 244 242 240 239 238 237 236 236 236 235 236 236 236 237 237 236 235 235 235 235 235 234 233 233 233 234 235 236 238 240 242 245 247 250 252 254 256 258 260 261 262 263 263 263 263 263 263 263 264 264
246 244 242 240 240 240 241 241 242 242 242 243 243 244 244 244 244 244 245 246 246 244 241 237 233 230 227 229 228 228 232 240 244 246 245 244 243 241 240 239 239 238 237 236 236 236 236 236 236 237 236 236 235 234 234 234 234 233 232 232 233 233 235 236 238 240 243 245 248 250 253 255 257 259 260 261 262 262 262 262 262 262 262 262 263 263
250 248 247 246 244 244 244 244 244 244 244 245 246 246 245 244 244 244 244 245 246 244 242 238 234 232 231 233 236 239 241 246 249 249 248 247 246 245 243 243 242 241 239 238 237 236 236 236 236 236 236 235 234 233 233 233 233 232 232 232 232 233 235 236 238 241 243 246 248 251 253 255 257 258 260 261 261 261 261 261 261 261 261 262 262 263
248 248 247 248 248 248 247 247 248 248 248 247 247 246 246 245 245 245 245 245 245 243 241 238 235 233 233 238 243 246 247 251 255 256 256 255 254 252 250 249 248 246 244 241 239 238 237 237 236 235 235 234 233 233 232 232 232 232 231 231 232 233 235 237 239 241 244 246 249 251 253 255 257 258 259 260 260 261 261 261 261 261 261 261 262 262
245 245 245 246 248 250 251 252 253 253 252 250 248 247 247 247 247 247 247 245 243 241 240 239 237 236 238 244 247 248 247 252 258 262 263 262 259 256 254 255 254 252 248 245 242 240 239 237 236 235 234 234 233 232 231 231 231 231 231 231 232 233 235 238 240 242 245 247 250 252 254 255 257 258 259 260 260 260 260 260 260 260 260 261 261 261
243 244 245 246 247 250 252 254 256 257 256 255 253 252 253 254 254 254 252 248 244 241 240 241 243 246 247 249 248 246 243 246 252 258 260 259 257 253 252 256 257 255 251 247 243 241 240 238 236 235 234 233 232 231 230 230 230 230 231 231 232 234 236 238 241 243 246 248 250 252 254 256 257 258 258 259 259 259 259 259 259 259 260 260 260 261
243 244 245 246 248 249 252 254 255 256 257 257 257 258 258 258 259 258 256 251 247 244 244 247 249 250 248 247 246 243 239 239 243 248 251 250 248 246 248 252 255 254 251 247 244 242 240 238 236 234 232 231 230 230 229 229 229 230 230 232 233 235 237 239 242 244 247 249 251 252 254 256 257 257 258 258 258 258 258 258 258 258 259 259 260 260
246 245 246 246 248 249 250 251 252 253 255 256 257 257 257 258 257 255 252 248 244 242 243 245 246 246 244 243 241 239 237 234 236 239 243 245 245 245 247 249 252 252 251 247 244 242 240 238 234 232 230 229 228 227 227 227 228 229 230 232 234 236 238 240 243 245 247 249 251 253 254 255 256 257 257 257 257 257 257 257 258 258 258 259 259 260
247 248 248 248 249 249 250 250 250 251 252 253 254 254 254 254 253 251 248 244 241 240 241 243 244 244 242 239 237 236 235 234 234 236 240 244 246 248 248 249 250 251 251 248 244 241 240 237 233 230 228 227 226 226 225 226 227 229 230 232 234 236 238 241 243 246 248 250 251 253 254 255 255 256 256 256 256 256 256 257 257 257 258 258 258 258
246 248 249 250 250 250 250 249 248 248 249 250 250 250 250 250 249 248 246 243 242 241 242 243 244 244 242 239 236 233 232 233 234 236 238 242 246 247 248 249 250 251 250 248 245 242 239 236 232 229 226 225 224 224 224 225 226 228 230 232 234 236 239 242 244 246 248 250 251 253 253 254 254 254 254 254 255 255 255 256 256 257 257 257 257 257
242 245 247 249 249 249 249 248 247 247 246 247 247 247 247 247 246 246 245 244 244 244 244 244 245 244 243 241 239 236 234 232 232 233 236 239 242 244 245 247 249 250 250 249 245 242 239 236 232 227 225 223 223 223 223 224 225 227 229 232 234 237 240 242 245 247 249 250 251 252 252 252 252 253 253 253 253 254 254 255 255 255 255 255 255 255
240 241 243 245 247 248 248 248 247 246 245 244 245 245 245 245 245 245 246 246 246 246 246 246 245 245 245 244 244 242 239 236 234 233 234 236 239 240 242 244 246 247 248 248 246 242 239 236 231 227 223 222 221 222 222 223 225 227 229 232 234 238 240 243 246 248 249 250 251 251 251 251 251 251 252 252 252 253 253 253 253 253 253 253 253 253
241 240 240 241 243 245 246 247 246 246 244 243 243 244 244 244 245 245 246 246 246 247 247 247 246 245 245 245 245 244 243 241 238 236 235 236 237 239 239 240 242 244 245 245 245 243 241 237 231 226 223 221 221 221 222 223 225 227 229 232 235 238 241 244 246 248 249 250 250 250 250 250 250 251 251 251 252 252 252 251 251 251 251 251 252 253
243 242 241 240 241 242 243 245 245 245 244 243 243 243 244 244 244 244 245 245 245 245 246 246 246 246 245 244 242 243 244 243 241 239 238 238 238 239 239 240 241 242 243 243 242 241 241 239 234 228 224 222 221 222 222 224 226 228 231 233 236 240 242 245 247 248 249 249 249 249 249 249 250 250 250 251 251 251 250 250 250 250 250 251 251 253
243 243 242 241 240 240 241 243 244 244 244 243 242 242 243 243 243 243 243 242 243 243 244 245 245 245 245 244 243 244 246 246 245 242 241 241 241 241 241 242 243 243 244 244 241 239 238 241 238 231 226 224 223 223 224 225 228 230 233 235 238 241 243 246 247 248 248 248 247 247 248 248 249 249 249 250 250 250 250 250 250 251 251 252 252 253
243 242 242 241 240 239 239 240 242 243 243 243 242 241 242 242 243 242 242 242 242 242 243 244 245 245 246 246 246 247 247 248 248 247 246 245 244 243 243 244 244 245 245 244 243 240 237 239 239 235 230 228 226 225 226 227 230 232 235 238 240 242 244 245 246 247 246 246 245 246 246 247 247 248 248 248 249 249 250 250 251 252 253 253 253 254
243 242 241 240 239 238 237 238 239 240 241 242 242 241 241 242 242 243 242 242 243 243 244 244 245 245 246 247 248 248 246 246 248 248 248 248 247 246 246 245 245 245 244 243 242 240 238 237 237 237 235 232 229 228 228 229 231 234 236 239 241 242 243 244 244 245 245 244 244 244 245 245 246 246 247 247 248 249 250 251 251 252 253 254 254 255
244 242 240 239 238 237 236 236 237 238 239 240 240 240 240 241 242 243 243 243 244 245 245 246 247 248 248 249 251 251 248 247 248 250 251 251 251 250 249 247 247 246 245 243 242 240 239 237 237 236 236 235 233 231 230 231 232 234 236 238 240 241 242 242 242 242 243 242 242 243 244 244 245 245 246 247 248 249 251 251 251 251 252 253 254 254
245 243 240 239 237 236 236 235 235 236 237 238 238 239 239 240 241 242 243 244 245 246 247 248 249 250 251 252 254 255 254 253 253 254 255 255 254 254 252 250 248 247 246 245 243 242 240 238 238 237 237 237 236 234 232 232 233 234 236 237 238 239 240 240 240 240 240 241 241 242 243 244 244 245 246 247 248 249 250 250 250 249 249 250 252 253
248 245 242 239 237 236 236 235 235 235 235 236 236 236 237 238 239 241 243 244 245 246 248 249 250 251 252 253 254 255 256 257 256 256 256 256 256 255 254 252 250 248 247 247 246 244 242 240 239 239 239 239 239 238 235 234 234 234 236 236 237 237 237 238 238 238 239 240 240 242 243 244 244 245 246 246 247 248 248 248 248 247 247 247 249 251
249 247 244 241 239 237 236 236 235 235 236 236 235 235 236 236 237 239 241 243 245 246 247 248 249 250 250 252 252 253 254 254 254 255 255 255 254 253 252 252 250 248 247 248 249 248 246 242 240 239 240 240 241 240 239 238 237 236 237 237 236 236 236 236 237 237 238 240 241 242 243 243 244 245 245 245 245 245 245 245 246 246 246 247 248 249
251 248 246 243 241 240 238 238 237 237 237 237 237 236 236 236 237 238 240 242 244 245 246 247 248 248 249 250 250 251 251 251 252 253 253 253 252 250 250 250 249 247 247 248 250 250 248 246 244 242 242 242 243 243 242 241 240 240 239 238 236 235 235 235 236 238 239 240 241 241 242 243 244 244 244 244 244 244 244 244 244 245 245 246 247 249
251 249 248 246 245 244 243 243 242 241 241 240 239 238 236 236 236 236 238 239 241 243 244 245 246 247 247 248 248 249 249 250 250 251 252 252 251 250 249 248 248 247 248 248 249 250 249 247 247 247 246 245 246 245 244 243 242 241 239 237 235 235 235 236 237 239 240 240 241 241 243 244 244 244 244 244 244 243 243 243 243 244 245 245 247 248
253 251 250 249 248 247 247 247 247 246 245 242 240 237 236 234 234 234 235 237 238 240 241 242 243 244 245 245 246 246 247 247 248 249 250 250 250 250 249 248 248 249 249 250 250 250 249 248 247 246 245 246 246 246 246 245 243 241 239 238 237 236 236 237 238 239 240 241 241 242 243 244 244 244 243 243 242 242 241 241 242 242 244 245 247 248
253 253 252 252 251 251 251 251 251 250 247 244 241 238 235 234 233 234 234 235 236 237 238 240 241 242 242 243 243 244 244 244 245 246 247 248 249 249 249 249 249 249 250 251 251 250 249 247 245 244 243 243 243 244 245 244 241 239 238 237 237 237 236 237 237 239 240 240 241 242 243 244 244 243 242 241 240 239 239 240 240 242 243 245 247 249
253 254 254 254 254 254 254 253 252 250 248 245 242 239 237 235 234 235 235 236 237 237 238 239 240 241 242 242 243 243 243 243 243 243 244 245 246 247 248 248 249 250 251 251 251 250 248 245 244 243 242 241 241 242 243 242 239 237 235 234 234 233 233 234 236 237 239 241 242 243 243 243 243 242 241 239 238 238 238 239 240 242 244 246 247 249
254 255 256 256 256 256 254 252 250 249 247 246 244 242 240 237 236 236 237 238 238 239 239 240 241 242 242 243 243 243 242 242 242 242 242 242 243 244 246 247 249 250 251 251 250 249 246 243 241 240 239 238 238 239 240 240 238 236 234 233 233 233 235 236 237 238 240 242 243 243 243 243 242 241 239 238 238 238 238 239 241 243 245 246 248 249
254 256 257 258 257 255 253 251 249 248 247 247 246 245 242 240 239 238 238 239 239 239 240 240 240 240 241 241 242 242 242 242 241 241 241 241 242 243 244 245 247 249 250 250 249 246 244 241 240 238 237 235 235 235 236 237 237 236 234 234 234 235 237 238 239 239 240 242 243 244 244 243 241 240 239 238 238 238 239 241 242 244 246 247 249 251
252 254 256 257 256 255 253 251 250 249 249 249 248 247 245 243 242 241 240 240 240 240 240 240 240 239 240 240 240 240 241 241 241 240 240 240 241 241 243 244 246 247 248 248 246 244 242 240 239 238 236 234 233 232 233 234 235 235 235 234 234 235 236 237 238 239 240 242 243 244 243 242 241 240 239 239 239 239 240 242 243 245 247 249 251 253
249 250 253 254 254 254 253 251 250 250 250 250 249 248 246 245 244 242 241 241 240 241 241 241 240 240 240 239 239 239 239 240 241 241 241 241 241 241 242 243 244 245 244 243 241 239 238 238 238 238 236 234 232 231 232 233 234 235 235 235 235 235 237 238 239 240 241 242 242 242 242 241 241 241 241 241 241 241 242 243 245 247 249 251 253 255
246 247 249 251 252 251 251 250 249 249 248 248 249 248 247 246 245 244 243 241 240 240 241 240 240 240 240 240 240 239 240 240 242 243 243 242 242 242 241 241 241 240 238 235 233 232 233 233 234 234 234 234 233 233 232 233 234 235 235 236 237 237 239 240 241 241 242 242 241 241 240 239 240 240 241 242 243 244 245 245 247 249 250 252 254 256
245 246 248 249 249 248 248 247 247 246 246 246 247 248 248 247 247 246 245 243 242 241 239 239 239 240 240 240 240 240 240 241 243 244 245 244 243 241 240 238 236 233 229 227 226 226 227 228 229 230 230 231 233 234 234 234 235 235 236 237 237 239 240 241 241 241 241 240 240 239 238 238 238 239 241 242 244 245 246 247 247 248 250 252 254 255
245 246 247 248 247 247 246 246 245 245 244 245 245 246 247 247 247 247 246 245 244 242 240 240 240 241 241 241 241 240 239 239 240 242 244 244 243 240 236 233 229 225 221 220 220 221 223 225 227 228 229 229 230 232 233 235 235 235 236 237 238 239 240 240 240 239 239 238 238 237 237 237 237 238 240 242 244 246 247 247 247 247 248 251 253 255
243 245 246 247 247 247 247 246 246 245 244 244 244 245 245 245 245 245 244 244 243 242 241 241 241 241 241 241 241 240 239 238 237 238 240 241 240 237 233 229 224 220 217 216 217 218 220 222 225 227 229 229 230 231 232 233 234 234 235 236 237 238 238 239 239 238 237 237 237 236 236 236 237 239 241 243 245 248 248 248 247 247 248 249 252 254
Height
1443 1444 1445 1446 1447 1448 1449 1450 1451 1452 1453 1454 1456 1457 1458 1459 1461 1462 1464 1465 1466 1467 1469 1470 1472 1474 1476 1478 1480 1481 1482 1482 1483 1483 1484 1485 1486 1488 1489 1491 1492 1492 1493 1494 1494 1494 1495 1495 1495 1495 1496 1496 1496 1497 1498 1499 1499 1500 1501 1502 1503 1503 1504 1505 1505 1506 1506 1507 1507 1507 1508 1508 1508 1509 1509 1509 1509 1509 1509 1509 1509 1509 1509 1508 1508 1508
1442 1442 1442 1443 1445 1446 1447 1448 1449 1450 1451 1452 1453 1454 1456 1457 1458 1460 1461 1463 1464 1466 1467 1468 1470 1472 1473 1475 1477 1478 1479 1479 1480 1480 1481 1482 1484 1486 1487 1489 1490 1490 1491 1492 1492 1492 1493 1493 1493 1493 1494 1494 1495 1495 1496 1497 1498 1498 1499 1500 1501 1502 1502 1503 1504 1504 1505 1505 1506 1506 1506 1507 1507 1507 1507 1507 1508 1508 1508 1507 1507 1507 1507 1507 1507 1507
1440 1440 1440 1441 1442 1443 1444 1446 1447 1448 1449 1450 1451 1452 1453 1454 1456 1457 1459 1460 1462 1463 1465 1467 1468 1470 1471 1473 1474 1475 1476 1477 1477 1478 1479 1481 1482 1484 1485 1486 1487 1488 1489 1489 1490 1490 1491 1491 1491 1492 1492 1492 1493 1493 1494 1495 1496 1497 1497 1498 1499 1500 1501 1501 1502 1502 1503 1504 1504 1504 1505 1505 1505 1506 1506 1506 1506 1506 1506 1506 1506 1506 1506 1506 1506 1505
1439 1438 1438 1439 1441 1442 1442 1444 1445 1446 1447 1448 1450 1451 1452 1452 1454 1455 1456 1458 1459 1461 1462 1464 1466 1467 1469 1471 1472 1472 1473 1474 1475 1476 1477 1479 1480 1482 1482 1484 1485 1486 1487 1487 1488 1488 1489 1489 1489 1490 1490 1490 1491 1492 1492 1493 1494 1495 1496 1497 1497 1498 1499 1500 1500 1501 1502 1502 1502 1503 1503 1503 1504 1504 1504 1504 1504 1504 1505 1505 1505 1504 1504 1504 1504 1504
1437 1437 1437 1438 1439 1441 1441 1442 1443 1445 1446 1447 1448 1449 1450 1451 1452 1453 1454 1456 1457 1458 1460 1462 1463 1465 1466 1467 1469 1470 1471 1472 1473 1474 1475 1477 1478 1479 1480 1481 1482 1483 1484 1485 1485 1486 1487 1487 1487 1487 1488 1488 1489 1490 1490 1491 1492 1493 1494 1495 1495 1496 1497 1498 1498 1499 1500 1500 1501 1501 1501 1502 1502 1502 1502 1503 1503 1503 1503 1503 1503 1503 1503 1503 1502 1502
1437 1437 1437 1438 1439 1440 1441 1441 1442 1443 1444 1445 1446 1447 1447 1448 1449 1451 1452 1453 1454 1455 1457 1459 1460 1462 1463 1465 1466 1467 1469 1470 1471 1472 1473 1474 1475 1476 1477 1478 1479 1480 1481 1482 1483 1483 1484 1485 1485 1486 1486 1487 1487 1488 1488 1489 1490 1491 1492 1493 1493 1494 1495 1496 1497 1497 1498 1498 1499 1499 1499 1500 1500 1501 1501 1501 1501 1501 1501 1501 1501 1501 1501 1501 1501 1501
1436 1436 1437 1437 1438 1439 1440 1441 1441 1442 1443 1443 1444 1445 1446 1447 1447 1448 1449 1450 1451 1452 1454 1456 1457 1459 1461 1462 1464 1466 1467 1468 1469 1470 1471 1472 1472 1473 1474 1476 1477 1477 1478 1479 1480 1481 1482 1482 1483 1483 1484 1485 1485 1486 1487 1487 1488 1489 1490 1491 1492 1492 1493 1494 1495 1495 1496 1496 1497 1497 1497 1498 1498 1498 1499 1499 1499 1499 1500 1500 1499 1499 1499 1499 1499 1499
1435 1435 1436 1437 1438 1438 1439 1440 1440 1441 1442 1442 1443 1443 1444 1445 1445 1446 1446 1447 1449 1450 1452 1453 1455 1457 1458 1460 1462 1464 1465 1466 1467 1467 1468 1469 1470 1471 1472 1472 1474 1475 1476 1477 1477 1478 1479 1480 1481 1481 1482 1482 1483 1484 1485 1486 1487 1487 1488 1489 1490 1491 1491 1492 1493 1493 1494 1494 1495 1495 1496 1496 1496 1497 1497 1497 1497 1497 1498 1498 1498 1497 1497 1497 1497 1497
1433 1434 1435 1436 1437 1437 1438 1439 1439 1440 1441 1441 1442 1442 1443 1443 1444 1444 1445 1445 1446 1448 1449 1451 1453 1455 1457 1458 1460 1461 1462 1463 1464 1464 1465 1466 1467 1468 1469 1470 1471 1472 1473 1474 1475 1476 1476 1477 1478 1479 1480 1480 1481 1482 1483 1484 1485 1485 1486 1487 1488 1488 1489 1490 1491 1492 1492 1492 1493 1493 1493 1494 1494 1495 1495 1495 1495 1496 1496 1496 1496 1496 1496 1495 1495 1495
1431 1432 1434 1435 1436 1437 1437 1437 1438 1439 1439 1440 1440 1441 1441 1442 1442 1443 1443 1444 1445 1446 1448 1449 1451 1452 1454 1456 1457 1458 1459 1460 1461 1462 1462 1463 1464 1465 1466 1467 1468 1469 1470 1471 1472 1473 1474 1475 1475 1476 1477 1478 1479 1480 1481 1482 1482 1483 1484 1485 1486 1487 1487 1488 1489 1489 1490 1490 1491 1491 1492 1492 1492 1492 1493 1493 1493 1493 1493 1494 1494 1494 1493 1493 1493 1493
1429 1431 1432 1433 1434 1435 1436 1436 1436 1437 1438 1438 1439 1439 1440 1440 1441 1442 1442 1443 1444 1445 1446 1447 1449 1450 1452 1453 1454 1455 1456 1457 1458 1459 1460 1461 1462 1463 1464 1465 1465 1466 1467 1468 1469 1470 1471 1472 1473 1474 1475 1476 1477 1478 1479 1480 1480 1481 1482 1483 1484 1484 1485 1486 1487 1487 1488 1488 1488 1489 1489 1490 1490 1490 1491 1491 1491 1491 1491 1492 1492 1492 1492 1492 1492 1491
1427 1428 1429 1431 1432 1433 1433 1434 1434 1435 1436 1436 1437 1437 1437 1438 1439 1440 1441 1442 1443 1444 1445 1446 1447 1448 1449 1450 1452 1453 1454 1455 1456 1457 1458 1459 1460 1460 1461 1462 1462 1463 1464 1465 1466 1467 1468 1469 1470 1471 1472 1473 1474 1475 1477 1477 1478 1479 1480 1481 1482 1482 1483 1484 1484 1485 1486 1486 1486 1487 1487 1487 1488 1488 1488 1489 1489 1489 1489 1489 1489 1489 1489 1489 1489 1489
1425 1426 1427 1428 1429 1430 1431 1431 1432 1433 1433 1433 1434 1434 1435 1436 1438 1439 1440 1441 1442 1443 1444 1445 1445 1446 1447 1448 1449 1450 1451 1452 1453 1454 1456 1456 1457 1458 1458 1459 1460 1461 1462 1462 1463 1464 1466 1467 1467 1468 1470 1471 1472 1473 1474 1475 1476 1477 1478 1478 1479 1480 1481 1482 1482 1483 1483 1484 1484 1484 1485 1485 1486 1486 1486 1487 1487 1487 1487 1487 1487 1487 1487 1487 1487 1487
1423 1424 1425 1425 1426 1427 1427 1428 1429 1429 1430 1431 1431 1432 1434 1435 1437 1438 1439 1440 1441 1442 1442 1443 1443 1444 1445 1445 1446 1447 1448 1449 1450 1452 1452 1453 1454 1455 1456 1457 1458 1459 1460 1460 1461 1462 1463 1464 1465 1466 1467 1468 1469 1471 1472 1473 1474 1475 1476 1476 1477 1478 1478 1479 1480 1481 1481 1481 1482 1482 1482 1483 1483 1484 1484 1484 1484 1485 1485 1485 1485 1485 1485 1485 1485 1485
1422 1422 1422 1422 1423 1424 1424 1425 1426 1427 1427 1429 1430 1432 1433 1434 1435 1437 1437 1438 1439 1440 1441 1441 1441 1441 1442 1442 1443 1444 1445 1446 1447 1448 1449 1451 1452 1454 1455 1455 1456 1457 1457 1458 1458 1459 1461 1462 1462 1463 1465 1466 1467 1468 1470 1471 1472 1472 1473 1474 1475 1476 1476 1477 1477 1478 1479 1479 1479 1480 1480 1481 1481 1482 1482 1482 1482 1482 1482 1482 1483 1483 1483 1483 1483 1483
1420 1420 1420 1420 1420 1421 1422 1423 1424 1425 1426 1427 1429 1430 1431 1432 1433 1435 1436 1437 1437 1438 1438 1438 1438 1439 1439 1440 1441 1442 1443 1444 1445 1446 1447 1448 1451 1452 1453 1454 1454 1454 1455 1455 1456 1457 1458 1459 1460 1461 1462 1464 1465 1466 1467 1468 1469 1470 1471 1472 1472 1473 1474 1475 1475 1476 1476 1477 1477 1477 1478 1478 1479 1479 1480 1480 1480 1480 1480 1480 1481 1481 1481 1481 1481 1481
1418 1418 1418 1418 1418 1419 1420 1421 1422 1423 1424 1426 1427 1428 1429 1430 1431 1432 1434 1435 1436 1436 1436 1436 1436 1436 1436 1437 1438 1439 1441 1442 1443 1444 1446 1447 1449 1451 1451 1451 1451 1452 1452 1453 1453 1455 1456 1457 1458 1459 1460 1462 1463 1464 1465 1466 1467 1468 1469 1470 1470 1471 1472 1472 1473 1473 1474 1474 1475 1475 1476 1476 1477 1477 1477 1478 1478 1478 1478 1478 1478 1478 1478 1478 1478 1478
1417 1416 1416 1416 1417 1417 1418 1419 1420 1421 1422 1423 1425 1426 1427 1428 1429 1430 1432 1432 1433 1434 1433 1433 1433 1433 1434 1435 1436 1437 1439 1441 1442 1443 1444 1445 1447 1448 1449 1449 1449 1449 1450 1450 1451 1452 1454 1455 1456 1457 1458 1460 1461 1462 1463 1464 1465 1466 1467 1467 1468 1469 1470 1470 1471 1471 1472 1472 1472 1473 1474 1474 1475 1475 1475 1475 1476 1476 1476 1476 1476 1476 1476 1476 1476 1476
1414 1414 1414 1414 1415 1416 1416 1417 1418 1419 1420 1421 1422 1424 1425 1426 1427 1428 1429 1430 1431 1431 1431 1431 1431 1431 1432 1433 1435 1437 1439 1440 1441 1442 1442 1442 1444 1445 1446 1446 1446 1447 1447 1448 1449 1450 1452 1453 1454 1455 1457 1458 1459 1460 1461 1462 1462 1463 1464 1465 1466 1467 1467 1468 1468 1469 1469 1470 1471 1471 1472 1472 1472 1473 1473 1473 1473 1474 1474 1474 1474 1474 1474 1474 1474 1474
1412 1412 1412 1412 1413 1414 1414 1415 1416 1417 1418 1419 1421 1422 1422 1423 1424 1426 1427 1427 1428 1429 1429 1429 1429 1430 1431 1432 1434 1436 1437 1438 1438 1439 1439 1440 1441 1442 1443 1443 1444 1444 1445 1446 1447 1449 1450 1451 1452 1453 1455 1456 1457 1457 1458 1459 1460 1461 1462 1463 1463 1464 1465 1466 1466 1467 1467 1468 1468 1469 1469 1470 1470 1471 1471 1471 1471 1472 1472 1472 1472 1472 1472 1472 1472 1472
1409 1409 1410 1411 1412 1412 1412 1413 1414 1416 1417 1418 1419 1419 1420 1421 1422 1423 1424 1426 1427 1427 1427 1427 1427 1428 1430 1431 1432 1433 1434 1434 1435 1435 1436 1437 1438 1439 1440 1441 1442 1442 1443 1444 1446 1447 1448 1449 1450 1452 1453 1454 1454 1455 1456 1457 1458 1458 1459 1460 1461 1462 1463 1463 1464 1465 1465 1466 1467 1467 1467 1468 1468 1468 1469 1469 1469 1469 1469 1469 1469 1469 1469 1470 1470 1470
1407 1407 1408 1410 1410 1410 1411 1412 1413 1414 1415 1416 1417 1417 1418 1419 1420 1421 1422 1424 1425 1425 1425 1426 1427 1428 1429 1429 1430 1430 1431 1431 1432 1432 1434 1434 1435 1436 1438 1439 1440 1440 1441 1442 1444 1445 1446 1447 1448 1450 1451 1452 1452 1453 1454 1455 1455 1456 1457 1458 1459 1460 1460 1461 1462 1462 1463 1464 1464 1465 1465 1466 1466 1466 1467 1467 1467 1467 1467 1467 1467 1467 1467 1467 1467 1467
1405 1406 1407 1408 1408 1409 1410 1411 1412 1413 1414 1414 1415 1415 1417 1418 1419 1420 1421 1422 1423 1424 1424 1425 1426 1426 1427 1427 1427 1428 1428 1429 1429 1430 1431 1432 1432 1435 1437 1438 1438 1438 1439 1441 1442 1443 1444 1445 1447 1448 1449 1450 1450 1451 1452 1452 1453 1454 1455 1455 1456 1457 1458 1459 1460 1461 1461 1462 1462 1463 1463 1463 1464 1464 1464 1464 1464 1465 1465 1465 1465 1465 1465 1465 1465 1465
1403 1404 1405 1406 1407 1407 1409 1410 1411 1411 1412 1412 1413 1414 1416 1417 1418 1419 1421 1422 1422 1423 1423 1424 1424 1424 1424 1425 1425 1426 1427 1427 1428 1429 1429 1430 1432 1434 1436 1437 1437 1437 1437 1439 1440 1441 1442 1443 1444 1446 1447 1447 1448 1449 1449 1450 1451 1451 1452 1453 1454 1455 1456 1457 1458 1458 1459 1460 1460 1461 1461 1461 1462 1462 1462 1462 1462 1462 1462 1462 1462 1463 1463 1463 1463 1463
1401 1402 1403 1404 1405 1406 1407 1408 1409 1410 1410 1411 1412 1413 1415 1416 1417 1418 1419 1420 1421 1421 1422 1422 1421 1421 1422 1423 1424 1424 1425 1426 1427 1427 1428 1429 1431 1433 1434 1435 1434 1434 1435 1437 1438 1438 1439 1440 1442 1444 1445 1445 1446 1447 1447 1447 1448 1449 1450 1451 1452 1453 1454 1455 1456 1456 1457 1458 1458 1458 1459 1459 1459 1459 1460 1460 1460 1460 1460 1460 1460 1461 1461 1461 1461 1461
1399 1400 1401 1402 1403 1404 1405 1407 1407 1408 1409 1410 1411 1412 1413 1414 1415 1416 1417 1417 1418 1418 1419 1419 1418 1419 1420 1421 1422 1422 1424 1425 1426 1426 1427 1428 1430 1431 1432 1432 1432 1432 1433 1434 1435 1436 1437 1438 1440 1441 1442 1443 1443 1444 1445 1445 1446 1447 1447 1449 1450 1451 1452 1452 1453 1454 1455 1455 1456 1456 1457 1457 1457 1457 1457 1457 1457 1458 1458 1458 1458 1458 1458 1458 1458 1458
1398 1398 1399 1400 1401 1402 1403 1404 1406 1407 1407 1408 1409 1410 1412 1412 1413 1413 1414 1414 1415 1416 1416 1416 1416 1417 1418 1419 1419 1421 1422 1423 1424 1425 1426 1427 1427 1428 1428 1429 1430 1430 1431 1432 1433 1434 1434 1436 1437 1439 1440 1441 1441 1442 1442 1443 1443 1444 1445 1447 1447 1448 1449 1450 1451 1452 1452 1453 1453 1454 1454 1455 1455 1455 1455 1455 1455 1456 1456 1456 1456 1456 1456 1456 1456 1456
1396 1396 1397 1398 1399 1400 1401 1402 1403 1404 1406 1406 1407 1408 1409 1410 1410 1410 1410 1411 1412 1413 1413 1413 1413 1414 1415 1416 1417 1418 1420 1421 1422 1422 1424 1425 1425 1425 1426 1427 1428 1428 1428 1429 1431 1432 1432 1433 1435 1437 1438 1438 1439 1439 1440 1441 1441 1442 1443 1444 1445 1446 1447 1448 1449 1450 1450 1451 1451 1452 1452 1452 1452 1453 1453 1453 1453 1453 1453 1453 1454 1454 1454 1454 1454 1454
1392 1394 1395 1396 1396 1397 1398 1399 1401 1402 1403 1404 1405 1406 1406 1406 1406 1406 1407 1409 1410 1410 1410 1410 1411 1412 1413 1414 1415 1416 1417 1417 1418 1420 1422 1422 1422 1422 1423 1425 1426 1426 1426 1427 1428 1430 1430 1431 1433 1435 1436 1436 1436 1437 1437 1438 1439 1440 1441 1442 1443 1444 1445 1446 1447 1447 1448 1448 1449 1449 1450 1450 1450 1451 1451 1451 1451 1451 1451 1451 1452 1452 1452 1452 1452 1452
1390 1391 1392 1393 1394 1395 1396 1397 1397 1399 1400 1402 1402 1403 1403 1403 1403 1404 1405 1407 1407 1407 1407 1407 1409 1410 1411 1412 1413 1413 1413 1414 1416 1417 1419 1419 1418 1419 1421 1423 1423 1424 1424 1426 1427 1428 1428 1429 1431 1432 1433 1433 1434 1434 1435 1436 1437 1437 1439 1440 1441 1442 1443 1444 1444 1445 1445 1446 1447 1447 1447 1448 1448 1448 1448 1448 1449 1449 1449 1449 1449 1449 1449 1449 1449 1449
1387 1388 1389 1390 1391 1392 1393 1394 1395 1396 1397 1398 1399 1400 1400 1400 1401 1402 1403 1404 1404 1404 1404 1405 1407 1408 1409 1410 1410 1410 1409 1411 1413 1415 1417 1417 1416 1417 1419 1421 1421 1421 1422 1424 1425 1426 1426 1427 1429 1430 1430 1431 1431 1432 1433 1433 1434 1435 1437 1438 1439 1440 1441 1441 1442 1442 1443 1444 1444 1445 1445 1445 1446 1446 1446 1446 1447 1447 1447 1447 1447 1447 1447 1447 1447 1447
1385 1386 1386 1387 1388 1389 1390 1391 1392 1393 1394 1395 1396 1397 1397 1397 1398 1399 1400 1401 1401 1402 1402 1403 1404 1406 1407 1407 1407 1407 1407 1409 1412 1413 1414 1415 1415 1416 1418 1419 1419 1419 1421 1422 1423 1424 1425 1425 1426 1427 1428 1428 1429 1430 1431 1432 1432 1433 1434 1436 1437 1437 1438 1439 1440 1440 1441 1442 1442 1442 1443 1443 1443 1443 1444 1444 1444 1444 1445 1445 1445 1445 1445 1445 1445 1445
1383 1383 1383 1384 1385 1386 1387 1388 1389 1390 1391 1392 1393 1394 1394 1395 1395 1396 1397 1398 1399 1399 1400 1401 1402 1403 1404 1405 1405 1406 1407 1409 1410 1411 1413 1413 1414 1415 1416 1417 1417 1418 1419 1420 1421 1422 1423 1423 1423 1424 1425 1426 1427 1427 1429 1430 1431 1432 1432 1433 1434 1435 1436 1437 1437 1438 1438 1439 1440 1440 1440 1441 1441 1441 1442 1442 1442 1442 1442 1442 1443 1443 1443 1442 1442 1443
1380 1381 1381 1382 1382 1383 1383 1384 1385 1386 1387 1388 1390 1391 1392 1392 1392 1393 1394 1395 1396 1397 1398 1399 1400 1401 1402 1403 1404 1405 1406 1407 1408 1409 1411 1412 1412 1413 1414 1415 1415 1416 1417 1418 1419 1420 1420 1420 1421 1422 1422 1423 1424 1426 1427 1427 1428 1429 1430 1431 1432 1433 1434 1434 1435 1435 1436 1437 1437 1438 1438 1438 1439 1439 1439 1440 1440 1440 1440 1441 1441 1441 1441 1441 1441 1441
1378 1378 1378 1379 1379 1380 1380 1381 1382 1383 1384 1385 1386 1387 1388 1389 1390 1390 1391 1392 1394 1395 1396 1397 1398 1399 1401 1401 1402 1402 1404 1405 1407 1407 1409 1410 1411 1412 1412 1413 1413 1414 1414 1415 1416 1417 1417 1418 1419 1419 1420 1421 1422 1423 1425 1426 1427 1427 1428 1429 1430 1431 1432 1432 1433 1433 1434 1435 1435 1436 1436 1436 1437 1437 1437 1438 1438 1438 1438 1439 1439 1439 1439 1439 1439 1439
1375 1375 1376 1376 1377 1377 1377 1378 1379 1380 1381 1382 1383 1384 1386 1387 1387 1388 1389 1390 1391 1393 1394 1395 1397 1398 1399 1400 1400 1401 1402 1404 1405 1406 1407 1407 1409 1410 1410 1411 1411 1412 1412 1412 1413 1414 1415 1416 1417 1417 1418 1419 1420 1421 1423 1424 1425 1426 1427 1427 1428 1429 1429 1430 1431 1431 1432 1432 1433 1433 1434 1434 1435 1435 1435 1436 1436 1436 1437 1437 1437 1437 1437 1437 1437 1437
1373 1373 1373 1373 1374 1374 1375 1375 1376 1377 1377 1379 1380 1382 1383 1384 1385 1386 1387 1388 1389 1391 1392 1393 1395 1396 1397 1398 1399 1400 1401 1402 1403 1404 1404 1406 1407 1408 1408 1408 1409 1410 1410 1411 1411 1412 1413 1414 1415 1415 1416 1417 1418 1419 1421 1422 1423 1424 1424 1425 1426 1427 1427 1428 1429 1429 1430 1430 1431 1431 1432 1432 1432 1433 1433 1434 1434 1434 1434 1435 1435 1435 1436 1436 1436 1436
1370 1370 1371 1371 1372 1372 1372 1373 1374 1374 1375 1377 1378 1379 1381 1382 1383 1384 1385 1386 1387 1389 1390 1392 1393 1394 1395 1396 1397 1398 1399 1400 1401 1401 1402 1403 1404 1405 1406 1407 1407 1408 1408 1409 1410 1411 1412 1412 1413 1413 1414 1415 1416 1417 1418 1420 1421 1422 1422 1423 1424 1425 1425 1426 1427 1427 1427 1428 1428 1429 1430 1430 1431 1431 1431 1432 1432 1432 1432 1432 1433 1433 1433 1434 1434 1434
1368 1368 1368 1369 1369 1370 1370 1371 1372 1373 1374 1375 1377 1378 1379 1381 1382 1383 1384 1385 1386 1387 1388 1390 1391 1392 1393 1394 1395 1396 1397 1397 1398 1399 1400 1401 1402 1403 1404 1404 1405 1406 1407 1408 1408 1409 1410 1411 1411 1412 1412 1413 1414 1415 1417 1418 1420 1420 1421 1422 1422 1423 1423 1424 1424 1425 1425 1426 1427 1427 1427 1428 1428 1429 1429 1429 1430 1430 1430 1431 1431 1432 1432 1432 1432 1432
1365 1366 1366 1367 1367 1368 1368 1369 1370 1372 1373 1374 1375 1377 1378 1379 1380 1381 1382 1383 1384 1385 1386 1387 1389 1390 1391 1392 1392 1393 1394 1395 1396 1397 1397 1398 1399 1401 1402 1402 1403 1404 1405 1406 1407 1407 1408 1409 1409 1410 1411 1412 1413 1414 1415 1417 1418 1419 1420 1420 1420 1420 1421 1422 1422 1423 1423 1424 1425 1425 1425 1426 1426 1427 1427 1427 1428 1428 1428 1429 1429 1430 1430 1430 1430 1430
1363 1363 1364 1365 1366 1366 1367 1368 1369 1370 1372 1372 1373 1374 1375 1376 1377 1378 1379 1380 1382 1382 1384 1385 1386 1387 1388 1389 1390 1391 1392 1393 1394 1394 1395 1396 1397 1398 1400 1401 1402 1402 1403 1404 1405 1406 1407 1407 1408 1409 1410 1411 1412 1412 1413 1415 1416 1417 1417 1417 1417 1418 1419 1420 1421 1421 1422 1422 1422 1423 1423 1424 1424 1425 1425 1426 1426 1426 1427 1427 1428 1428 1428 1428 1428 1428
1361 1361 1362 1363 1364 1365 1366 1367 1367 1368 1369 1370 1371 1372 1372 1373 1374 1376 1377 1378 1379 1380 1381 1382 1384 1385 1385 1386 1387 1388 1389 1391 1391 1392 1393 1394 1395 1397 1397 1399 1400 1401 1402 1403 1403 1404 1405 1406 1407 1407 1408 1409 1410 1411 1412 1413 1414 1415 1415 1415 1416 1417 1418 1418 1418 1419 1420 1420 1420 1421 1422 1422 1422 1423 1423 1424 1424 1425 1425 1426 1426 1426 1426 1426 1426 1427
1359 1359 1360 1362 1362 1363 1364 1365 1366 1366 1367 1367 1368 1369 1370 1371 1372 1373 1374 1375 1376 1377 1379 1380 1381 1382 1383 1384 1385 1386 1387 1388 1389 1390 1391 1392 1393 1394 1396 1397 1398 1399 1400 1401 1402 1402 1403 1404 1405 1405 1406 1407 1409 1409 1410 1411 1412 1413 1413 1414 1414 1415 1415 1415 1416 1417 1418 1418 1418 1419 1420 1420 1420 1421 1421 1422 1422 1423 1423 1423 1424 1424 1424 1424 1424 1424
1357 1358 1359 1360 1361 1362 1362 1363 1363 1364 1364 1365 1365 1366 1367 1369 1370 1371 1372 1373 1374 1376 1377 1378 1379 1380 1381 1382 1382 1384 1385 1386 1387 1388 1389 1390 1391 1392 1394 1395 1396 1397 1398 1399 1399 1400 1401 1402 1403 1403 1405 1406 1407 1408 1408 1409 1410 1410 1411 1412 1412 1412 1412 1413 1414 1416 1416 1416 1417 1417 1418 1418 1419 1419 1419 1420 1420 1421 1421 1421 1422 1422 1422 1422 1422 1422
1356 1357 1357 1358 1359 1360 1360 1361 1361 1362 1362 1362 1363 1364 1365 1367 1368 1369 1370 1371 1372 1373 1375 1376 1377 1378 1378 1379 1380 1382 1382 1383 1385 1386 1387 1388 1389 1391 1392 1393 1394 1395 1396 1397 1397 1398 1399 1400 1401 1402 1403 1404 1405 1406 1406 1407 1407 1408 1409 1409 1410 1411 1411 1412 1413 1414 1414 1415 1415 1416 1416 1417 1417 1417 1417 1418 1418 1419 1419 1419 1420 1420 1420 1420 1421 1420
1354 1355 1355 1356 1357 1357 1358 1358 1359 1360 1360 1361 1361 1362 1363 1364 1366 1367 1368 1369 1370 1371 1372 1373 1375 1375 1376 1377 1378 1379 1380 1381 1382 1383 1384 1386 1387 1388 1389 1391 1392 1393 1394 1395 1396 1397 1397 1398 1399 1400 1402 1402 1403 1403 1404 1404 1405 1406 1406 1407 1408 1409 1409 1410 1411 1412 1412 1413 1413 1414 1414 1414 1415 1415 1415 1416 1416 1417 1417 1417 1418 1418 1418 1418 1418 1418
1352 1352 1353 1354 1355 1355 1356 1357 1357 1358 1358 1358 1359 1360 1361 1362 1363 1365 1366 1367 1368 1369 1370 1371 1372 1373 1373 1374 1376 1377 1377 1378 1379 1380 1382 1383 1385 1386 1387 1388 1390 1391 1392 1393 1394 1395 1396 1397 1397 1398 1399 1400 1401 1401 1402 1402 1403 1403 1404 1405 1406 1407 1407 1408 1409 1410 1410 1411 1411 1412 1412 1412 1412 1413 1413 1413 1414 1414 1415 1416 1416 1416 1416 1416 1416 1416
1349 1350 1351 1352 1353 1353 1354 1355 1355 1356 1356 1357 1357 1358 1359 1360 1361 1362 1364 1365 1366 1367 1368 1369 1370 1370 1371 1372 1373 1374 1375 1376 1377 1378 1379 1381 1382 1384 1385 1386 1387 1389 1390 1391 1392 1393 1394 1395 1395 1396 1397 1397 1398 1398 1399 1400 1401 1401 1402 1403 1404 1405 1405 1406 1407 1408 1409 1409 1409 1410 1410 1410 1411 1411 1411 1412 1412 1412 1413 1413 1414 1414 1414 1414 1414 1413
1347 1348 1349 1350 1351 1351 1352 1352 1353 1354 1354 1355 1356 1357 1357 1358 1359 1361 1362 1363 1364 1365 1366 1367 1367 1368 1369 1370 1371 1372 1373 1374 1375 1376 1377 1378 1380 1381 1382 1384 1385 1387 1388 1389 1390 1391 1392 1392 1393 1393 1394 1395 1396 1397 1397 1398 1399 1399 1400 1401 1402 1403 1403 1404 1405 1406 1407 1407 1407 1408 1408 1408 1409 1409 1409 1410 1410 1410 1411 1411 1412 1412 1412 1412 1412 1411
1345 1346 1347 1348 1348 1349 1350 1350 1351 1352 1352 1353 1354 1355 1356 1357 1357 1359 1360 1361 1362 1363 1364 1364 1365 1366 1367 1368 1369 1370 1372 1372 1373 1374 1374 1375 1377 1378 1380 1382 1383 1385 1386 1387 1388 1389 1389 1390 1391 1391 1392 1393 1394 1394 1395 1396 1397 1398 1399 1399 1400 1401 1402 1402 1403 1404 1405 1406 1406 1406 1407 1407 1407 1407 1407 1407 1407 1408 1408 1409 1410 1410 1410 1410 1410 1409
1342 1344 1345 1346 1346 1347 1347 1348 1349 1350 1350 1351 1352 1353 1354 1355 1356 1357 1358 1359 1360 1361 1362 1362 1363 1364 1365 1366 1367 1368 1369 1370 1371 1372 1372 1373 1375 1376 1378 1379 1381 1382 1383 1384 1386 1387 1387 1388 1389 1389 1390 1391 1391 1392 1393 1394 1395 1396 1397 1397 1398 1399 1400 1401 1402 1402 1403 1404 1404 1404 1405 1405 1405 1405 1405 1405 1406 1406 1406 1407 1407 1408 1408 1408 1408 1407